Showing default

ICEYE-X50, 63255

Orbit data source: Space-Track

ICEYE-X50, 63255 is a payload satellite owned by ICEYE (FI) in SSO that was launched on Sat, 15 Mar 2025 UTC via an FALCON 9 launch vehicle from the Air Force Western Test Range (AFWTR). Payload-class satellites include a variety of spacecraft equipped with specific instruments for various scientific and technological missions. These include communications satellites like Starlink; space stations such as the ISS; scientific satellites like the Hubble; Earth observation satellites from companies like Planet Labs, Umbra, and HawkEye 360; GPS; miniature CubeSats for education and research; and military/defense satellites.

Loading next visibility...
Identifier
63255, 2025-052AX
Orbit
SSO
Country
Flag of FIFI / FIN
Related business
Manufacturer
ICEYE
Mission
Operational Commercial Radar Imaging
Bus & Motor
ICEYE, Unknown motor
Mass
80 kg wet, 80 kg dry
Launch date (UTC)
2025-03-15 (1 year ago)
Launch vehicle
FALCON 9
Launch site
Air Force Western Test Range (AFWTR)
Object type
Payload
Rocket body
Debris
Shape & HBR
Box + 1 Pan, 2.4 m
Radar Cross Section
0.776 m², Medium (>0.1 m² and < 1m²)

Expand to show TLE details & history
Last TLE update: 5 hours ago

TLE from 5 hours ago
0 ICEYE-X50
1 63255U 25052AX  26193.18475402  .00001298  00000-0  12276-3 0  9998
2 63255  97.6863  84.5972 0003410 108.3002 251.8590 14.95358865 72383
Epoch: 2026-07-12T04:26Z
TLE epoch observation values (Epoch: 2026-07-12T04:26:02.747Z)
Latitude
-0.00003°
Longitude
87.9985°
Altitude
585.048 km
Speed
7.567 km/s
True Right ascension
05h 38m 23s
True Declination
0° 00' 00"
Sunlit
Object was in daylight at epoch
Visualization orbit readout
Latitude
Unknown
Longitude
Unknown
Altitude
Unknown
Speed
Unknown
Apparent Right ascension
Unknown
Apparent Declination
Unknown
Sunlit
N/A
Visualization observer readout
Local Sidereal Time
21:18:43
Azimuth
Unknown
Elevation
Unknown
Doppler factor
Unknown
Orbital elements
Apogee altitude
580.642 km
Perigee altitude
575.898 km
Semi-major axis
6,956.407 km
Eccentricity
0.00034
Inclination
97.6863°
RAAN
84.5972°
Arg. of periapsis
108.3002°
True anomaly
251.82187°
Mean anomaly
251.859°
Eccentric anomaly
251.84044°
Mean motion
3.74081 °/min
Orbital period
96.24 mins
BSTAR
0.00012276
Loading maneuver chart data...
Computing Atmospheric mass density...
Loading historical data...
Loading historical data...
Loading historical data...
Loading historical data...
Loading historical data...
Loading historical data...
Loading historical data...

Documentation

Showing up to 5 results
|